FW5230 Weather Reports


time (UTC)temp
C
wind
direction
speed
KPH
gust
KPH
rain 1hr
cm
rain 24hr
cm
rain mn
cm
humidity
%
barometer
mb
20260507134534 11 311 3.2 8.0 0.00 2.24 0.43 79 1004.8
20260507133050 10 234 3.2 9.7 0.00 2.24 0.43 78 1005.0
20260507131529 10 280 0.0 6.4 0.00 2.24 0.43 83 1004.9
20260507130034 10 275 4.8 9.7 0.00 2.24 0.43 83 1004.9
20260507124529 10 296 4.8 9.7 0.00 2.24 0.43 84 1005.1
20260507123035 10 295 3.2 9.7 0.00 2.24 0.43 86 1005.3
20260507121526 9 308 6.4 11.3 0.00 2.24 0.43 86 1005.3
20260507120024 8 265 1.6 6.4 0.00 2.24 0.43 90 1005.2
20260507114524 8 210 3.2 8.0 0.00 2.24 0.43 90 1005.6
20260507113023 8 254 3.2 9.7 0.00 2.24 0.43 92 1005.2
20260507111520 7 303 6.4 12.9 0.00 2.24 0.43 91 1005.1
20260507110020 7 328 4.8 11.3 0.00 2.24 0.43 92 1005.3
20260507104517 7 275 6.4 12.9 0.00 2.24 0.43 95 1004.9
20260507103016 6 284 4.8 11.3 0.00 2.24 0.43 96 1004.8
20260507101515 6 294 3.2 8.0 0.00 2.24 0.43 96 1004.7
20260507100020 6 342 0.0 4.8 0.00 2.24 0.43 97 1004.7
20260507094512 7 269 1.6 4.8 0.00 2.24 0.43 97 1004.9
20260507093012 7 302 1.6 6.4 0.00 2.24 0.43 97 1005.1
20260507091511 7 287 0.0 3.2 0.00 2.24 0.43 96 1004.2
20260507090011 7 279 3.2 4.8 0.00 2.24 0.43 96 1004.6
20260507084506 7 284 3.2 8.0 0.00 2.24 0.43 96 1004.3
20260507083005 7 292 3.2 6.4 0.00 2.24 0.43 96 1004.3
20260507081503 7 298 3.2 6.4 0.00 2.24 0.43 97 1004.2
20260507080001 8 276 3.2 9.7 0.03 2.24 0.43 97 1004.3
20260507074601 8 311 6.4 11.3 0.03 2.24 0.43 98 1004.2
20260507073107 8 278 3.2 6.4 0.05 2.24 0.43 98 1004.0
20260507071555 8 307 3.2 6.4 0.08 2.24 0.43 98 1003.9
20260507070101 8 312 1.6 4.8 0.15 2.21 0.41 98 1003.8
20260507064556 8 351 1.6 6.4 0.28 2.21 0.41 98 1003.5
20260507063051 9 294 0.0 6.4 0.25 2.18 0.38 98 1003.4
20260507061550 9 345 0.0 6.4 0.23 2.13 0.33 98 1003.4
20260507060055 9 321 3.2 11.3 0.15 2.03 0.23 97 1003.7
20260507054545 10 285 3.2 9.7 0.08 1.93 0.13 98 1003.5
20260507053045 10 300 1.6 4.8 0.08 1.93 0.13 97 1002.9
20260507051543 10 272 3.2 17.7 0.08 1.91 0.10 97 1003.2
20260507050040 10 271 8.0 16.1 0.08 1.88 0.08 98 1003.4
20260507044548 10 296 8.0 14.5 0.05 1.85 0.05 98 1003.2
20260507043032 11 309 3.2 12.9 0.08 1.85 0.05 98 1002.8
20260507041530 11 209 4.8 11.3 0.08 1.83 0.03 98 1002.6
20260507040028 11 246 3.2 17.7 0.05 1.80 0.00 98 1002.6
20260507034530 11 209 3.2 11.3 0.05 1.80 1.80 98 1002.6
20260507033036 11 203 6.4 14.5 0.03 1.78 1.78 98 1002.7
20260507031543 11 240 6.4 19.3 0.00 1.75 1.75 98 1002.7
20260507030025 11 230 1.6 12.9 0.00 1.75 1.75 98 1002.3
20260507024524 11 224 3.2 16.1 0.03 1.75 1.75 98 1002.7
20260507023021 12 225 3.2 11.3 0.05 1.75 1.75 98 1003.0
20260507021519 12 215 1.6 20.9 0.05 1.75 1.75 98 1003.2
20260507020022 12 276 3.2 12.9 0.05 1.75 1.75 98 1003.5
20260507014520 12 284 3.2 12.9 0.03 1.73 1.73 98 1003.7
20260507013016 12 170 4.8 12.9 0.00 1.70 1.70 98 1004.2
20260507011525 11 355 3.2 9.7 0.00 1.70 1.70 98 1004.5
20260507010009 11 233 3.2 11.3 0.00 1.70 1.70 98 1004.7
20260507004508 11 293 3.2 9.7 0.08 1.70 1.70 98 1005.0
20260507003007 11 292 3.2 9.7 0.10 1.70 1.70 98 1005.1
20260507001506 11 192 3.2 16.1 0.30 1.70 1.70 97 1005.2
20260507000005 11 271 6.4 16.1 0.69 1.70 1.70 97 1005.3
20260506234505 12 221 1.6 12.9 0.71 1.63 1.63 98 1005.3
20260506233004 12 187 4.8 9.7 0.76 1.60 1.60 97 1005.4
20260506231503 12 18 1.6 11.3 0.58 1.37 1.37 97 1005.4
20260506230001 12 123 3.2 9.7 0.30 0.99 0.99 97 1005.4
20260506224607 12 65 3.2 12.9 0.28 0.91 0.91 97 1005.3
20260506223100 12 240 3.2 16.1 0.33 0.84 0.84 97 1005.5
20260506221559 12 207 3.2 8.0 0.38 0.79 0.79 97 1006.0
20260506220101 12 151 1.6 11.3 0.36 0.69 0.69 97 1005.9
20260506214558 12 49 0.0 8.0 0.36 0.61 0.61 97 1005.8
20260506213058 12 165 3.2 11.3 0.33 0.51 0.51 96 1006.4
20260506211556 12 294 3.2 9.7 0.30 0.41 0.41 96 1006.3
20260506210055 12 86 3.2 14.5 0.25 0.30 0.30 95 1006.1
20260506204555 12 255 1.6 22.5 0.23 0.25 0.25 95 1006.4
20260506203054 12 63 4.8 16.1 0.18 0.18 0.18 94 1006.0
20260506201556 13 157 1.6 16.1 0.10 0.10 0.10 93 1006.4
20260506200051 13 132 4.8 14.5 0.05 0.05 0.05 91 1006.0
20260506194550 13 138 3.2 12.9 0.03 0.03 0.03 89 1006.2
20260506193049 14 92 3.2 9.7 0.00 0.00 0.00 85 1006.7
20260506191550 15 213 4.8 16.1 0.00 0.00 0.00 83 1006.6
20260506190052 15 119 4.8 14.5 0.00 0.00 0.00 84 1006.8
20260506184551 15 219 3.2 14.5 0.00 0.00 0.00 83 1006.7
20260506183049 15 123 4.8 11.3 0.00 0.00 0.00 82 1006.8
20260506181545 16 261 3.2 12.9 0.00 0.00 0.00 81 1006.8
20260506180046 16 184 1.6 16.1 0.00 0.00 0.00 82 1006.9
20260506174544 15 300 4.8 12.9 0.00 0.00 0.00 83 1007.3
20260506173120 15 223 1.6 12.9 0.00 0.00 0.00 83 1007.7
20260506171543 15 216 1.6 11.3 0.00 0.00 0.00 84 1007.8
20260506170044 15 306 1.6 19.3 0.00 0.00 0.00 85 1007.9
20260506164544 15 355 3.2 16.1 0.00 0.00 0.00 83 1008.1
20260506163043 15 355 4.8 16.1 0.00 0.00 0.00 82 1008.2
20260506161542 16 106 4.8 14.5 0.00 0.00 0.00 82 1008.3
20260506160040 16 250 1.6 11.3 0.00 0.00 0.00 81 1008.3
20260506154545 16 88 3.2 14.5 0.00 0.00 0.00 79 1008.1
20260506153045 16 217 3.2 6.4 0.00 0.00 0.00 79 1007.9
20260506151538 16 148 4.8 11.3 0.00 0.00 0.00 79 1008.0
20260506150036 16 131 1.6 9.7 0.00 0.00 0.00 79 1008.3
20260506144538 15 80 1.6 8.0 0.00 0.00 0.00 80 1008.8
20260506143036 15 190 4.8 11.3 0.00 0.00 0.00 80 1009.2
20260506141532 15 106 1.6 8.0 0.00 0.00 0.00 80 1009.1
20260506140029 15 71 1.6 6.4 0.00 0.00 0.00 80 1009.1